Tracking 21611 objects as of 21-Oct-2020
HD Live streaming from Space Station
objects crossing your sky now

COSMOS 1862

Track COSMOS 1862 now!
10-day predictions
COSMOS 1862 is classified as:


NORAD ID: 18152
Int'l Code: 1987-055A
Perigee: 544.7 km
Apogee: 564.0 km
Inclination: 82.5 °
Period: 95.6 minutes
Semi major axis: 6925 km
RCS: 8.6433 m2 (large)
Launch date: July 1, 1987
Source: Commonwealth of Independent States (former USSR) (CIS)
Launch site: PLESETSK MISSILE AND SPACE COMPLEX (PKMTR)
aabbcc
Your satellite tracking list
Your tracking list is empty




NASA's NSSDC Master Catalog

Two Line Element Set (TLE):
1 18152U 87055A   20294.96182872 +.00000289 +00000-0 +17597-4 0  9994
2 18152 082.4972 185.4640 0013896 011.7342 348.4206 15.06405890813551
Source of the keplerian elements: AFSPC